FRS146 EDXB-EDXH

Flight info

Callsign FRS146
Flight time N/A
Altitude 2500
Route EDXB DCT EDXH
Aircraft PA24/L-SDGY/7000

Departure

Time N/A
Airport Heide-Büsum Airport (EDXB)

Arrival

Time 2026-04-24 19:03
Airport Helgoland-Düne Airport (EDXH)
Time Latitude Longitude Altitude Speed Heading
2026-04-24 18:54 54.28236 7.79252 1724 ft 120 kts 250°
2026-04-24 18:55 54.27371 7.76812 1724 ft 121 kts 227°
2026-04-24 18:55 54.26719 7.75878 1719 ft 122 kts 215°
2026-04-24 18:55 54.25963 7.75230 1717 ft 123 kts 202°
2026-04-24 18:56 54.25128 7.74882 1711 ft 124 kts 189°
2026-04-24 18:56 54.24269 7.74832 1710 ft 124 kts 178°
2026-04-24 18:56 54.23413 7.75044 1713 ft 125 kts 169°
2026-04-24 18:56 54.22576 7.75449 1722 ft 125 kts 165°
2026-04-24 18:57 54.21738 7.75905 1725 ft 125 kts 162°
2026-04-24 18:57 54.20940 7.76471 1717 ft 125 kts 156°
2026-04-24 18:57 54.20168 7.77186 1678 ft 126 kts 150°
2026-04-24 18:57 54.19432 7.78015 1666 ft 126 kts 146°
2026-04-24 18:58 54.18727 7.78919 1611 ft 127 kts 144°
2026-04-24 18:58 54.18027 7.79831 1569 ft 126 kts 144°
2026-04-24 18:58 54.17331 7.80734 1514 ft 127 kts 144°
2026-04-24 18:58 54.16656 7.81722 1446 ft 127 kts 136°
2026-04-24 18:59 54.16083 7.82861 1394 ft 127 kts 127°
2026-04-24 18:59 54.15634 7.84170 1328 ft 128 kts 115°
2026-04-24 18:59 54.15346 7.85594 1284 ft 128 kts 104°
2026-04-24 18:59 54.15205 7.87080 1233 ft 127 kts 96°
2026-04-24 19:00 54.15124 7.88573 1193 ft 126 kts 93°
2026-04-24 19:00 54.15121 7.90079 1134 ft 126 kts 88°
2026-04-24 19:00 54.15182 7.91522 1132 ft 122 kts 84°
2026-04-24 19:00 54.15299 7.92995 1052 ft 125 kts 79°
2026-04-24 19:01 54.15544 7.94279 1053 ft 109 kts 62°
2026-04-24 19:01 54.16068 7.95264 832 ft 111 kts 30°
2026-04-24 19:01 54.16759 7.95536 758 ft 101 kts 344°
2026-04-24 19:01 54.17085 7.94571 510 ft 106 kts 267°
2026-04-24 19:02 54.17069 7.93807 544 ft 86 kts 271°
2026-04-24 19:02 54.17318 7.92689 448 ft 79 kts 309°
2026-04-24 19:02 54.17735 7.92121 286 ft 80 kts 332°
2026-04-24 19:02 54.18252 7.91788 64 ft 72 kts 327°
2026-04-24 19:03 54.18595 7.91359 5 ft 45 kts 328°
2026-04-24 19:03 54.18655 7.91279 7 ft 0 kts 192°
2026-04-24 19:03 54.18614 7.91318 6 ft 13 kts 143°
2026-04-24 19:03 54.18617 7.91442 3 ft 12 kts 56°
2026-04-24 19:04 54.18659 7.91546 3 ft 9 kts 54°
2026-04-24 19:04 54.18699 7.91579 4 ft 6 kts 356°
2026-04-24 19:04 54.18737 7.91608 4 ft 0 kts 36°